Deer Park, WA
on Sunday, February 10, 2013

Sunday
Previous Day Next Day
Daily Summary
 ActualAverageRecord
Temperature
Mean Temperature °F 30°F  
Max Temperature 33°F 38°F 43°F (2005)
Min Temperature 14°F 21°F 10°F (1999)
Degree Days
Heating Degree Days 41 35  
Month to date heating degree days 346 358  
Since 1 July heating degree days 4454 4754  
Cooling Degree Days 0 0  
Month to date cooling degree days 0 0  
Year to date cooling degree days 0 0  
Moisture
Dew Point 23°F   
Average Humidity 88    
Maximum Humidity 100    
Minimum Humidity 75    
Precipitation
Precipitation 0.00 in 0.06 in 0.25 in (2014)
Month to date precipitation 0.03 0.67  
Year to date precipitation 1.53 3.30  
Wind
Wind Speed 1 mph   
Max Wind Speed 8 mph   
Max Gust Speed 9 mph   
Visibility 8 miles   
Events     

Key: T is trace of precipitation, MM is missing value
Source: NWS Daily Summary
Time(PST)TemperatureDew PointHumidity Pressure Visibility Wind DirectionWind SpeedGust SpeedPrecipitationEvents Conditions
12:28 AM 15.8°F 14.0°F 93% 30.18 in 6.0 miles Calm Calm - N/A   Mostly Cloudy
12:53 AM 16.0°F 12.9°F 88% 30.27 in 7.0 miles North 3.5 mph - N/A   Overcast
1:53 AM 18.0°F 15.1°F 88% 30.28 in 7.0 miles Calm Calm - N/A   Scattered Clouds
2:53 AM 19.9°F 18.0°F 92% 30.28 in 7.0 miles Calm Calm - N/A   Clear
3:53 AM 19.0°F 16.0°F 88% 30.28 in 8.0 miles Calm Calm - N/A   Clear
4:11 AM 19.4°F 17.6°F 93% 30.20 in 8.0 miles Calm Calm - N/A   Scattered Clouds
4:19 AM 19.4°F 15.8°F 86% 30.20 in 8.0 miles WNW 3.5 mph - N/A   Mostly Cloudy
4:53 AM 19.0°F 17.1°F 92% 30.29 in 5.0 miles Calm Calm - N/A   Overcast
5:10 AM 19.4°F 19.4°F 100% 30.21 in 2.0 miles Calm Calm - N/A   Overcast
5:26 AM 19.4°F 17.6°F 93% 30.21 in 4.0 miles Calm Calm - N/A   Overcast
5:53 AM 21.0°F 19.0°F 92% 30.30 in 7.0 miles Calm Calm - N/A   Overcast
6:53 AM 21.9°F 19.9°F 92% 30.31 in 7.0 miles WNW 3.5 mph - N/A   Overcast
7:53 AM 24.1°F 23.0°F 96% 30.33 in 6.0 miles Calm Calm - N/A   Overcast
8:25 AM 24.8°F 24.8°F 100% 30.24 in 6.0 miles Calm Calm - N/A   Overcast
8:53 AM 26.1°F 25.0°F 96% 30.34 in 6.0 miles Calm Calm - N/A   Overcast
9:18 AM 26.6°F 26.6°F 100% 30.25 in 6.0 miles Calm Calm - N/A   Overcast
9:53 AM 28.0°F 27.0°F 96% 30.35 in 8.0 miles West 3.5 mph - N/A   Overcast
10:53 AM 32.0°F 28.9°F 88% 30.34 in 10.0 miles Calm Calm - N/A   Overcast
11:53 AM 30.9°F 28.0°F 89% 30.32 in 10.0 miles South 4.6 mph - N/A   Overcast
12:53 PM 33.1°F 27.0°F 78% 30.31 in 10.0 miles Calm Calm - N/A   Overcast
1:10 PM 32.0°F 26.6°F 80% 30.22 in 10.0 miles Calm Calm - N/A   Overcast
1:53 PM 33.1°F 27.0°F 78% 30.30 in 10.0 miles Calm Calm - N/A   Overcast
2:53 PM 33.1°F 27.0°F 78% 30.29 in 10.0 miles Calm Calm - N/A   Overcast
3:53 PM 33.1°F 28.0°F 82% 30.29 in 10.0 miles Calm Calm - N/A   Overcast
4:53 PM 32.0°F 27.0°F 82% 30.30 in 10.0 miles Calm Calm - N/A   Overcast
5:53 PM 32.0°F 27.0°F 82% 30.29 in 10.0 miles South 3.5 mph - N/A   Overcast
6:53 PM 30.9°F 27.0°F 85% 30.29 in 10.0 miles WSW 4.6 mph - N/A   Overcast
7:53 PM 30.9°F 27.0°F 85% 30.29 in 10.0 miles WNW 3.5 mph - N/A   Overcast
8:53 PM 28.9°F 26.1°F 89% 30.29 in 10.0 miles Calm Calm - N/A   Overcast
9:22 PM 28.4°F 24.8°F 86% 30.21 in 10.0 miles Calm Calm - N/A   Scattered Clouds
9:53 PM 25.0°F 23.0°F 92% 30.28 in 8.0 miles Calm Calm - N/A   Clear
10:53 PM 23.0°F 21.9°F 96% 30.27 in 5.0 miles Calm Calm - N/A   Scattered Clouds
11:35 PM 21.2°F 21.2°F 100% 30.19 in 1.8 miles Calm Calm - N/A   Mostly Cloudy
Moon Phase
Feb. 10 Feb. 17 Feb. 25 Mar. 04 Mar. 11
Sunrise:07:03 AM (PST) Moon Rise:06:50 AM (PST)2/10
Sunset:05:04 PM (PST) Moon Set:06:09 PM (PST)2/10

Copyright © 2014 The Weather Underground, Inc.